Weather History for Shepherd Bay, NU

Change the Weather History Date:

Friday, October 11, 2013

  Actual Average Record
Temperature  
Mean Temperature 32 °F -  
Max Temperature 35 °F - - ()
Min Temperature 30 °F - - ()
Degree Days  
Heating Degree Days 32    
Moisture  
Dew Point -    
Average Humidity    
Maximum Humidity    
Minimum Humidity    
Precipitation  
Precipitation 0.00 in - - ()
Sea Level Pressure  
Sea Level Pressure 29.62 in    
Wind  
Wind Speed 20 mph ()    
Max Wind Speed 29 mph    
Max Gust Speed 34 mph    
Visibility 6.7 miles    
Events Rain , Snow    
T = Trace of Precipitation, MM = Missing Value Source: Averaged Metar Reports

Daily Weather History Graph

Daily Weather History Graph

Search for Another Location

Airport:

Trip Planner

Search our weather history database for the weather conditions in past years. The results will help you decide how hot, cold, wet, or windy it might be!

Date:

Astronomy

Oct. 11, 2013 Rise Set
Actual Time 8:06 AM CDT 5:52 PM CDT
Civil Twilight 7:08 AM CDT 6:50 PM CDT
Nautical Twilight 6:01 AM CDT 7:57 PM CDT
Astronomical Twilight 4:50 AM CDT 9:07 PM CDT
Moon 4:42 PM CDT (10/11) 9:51 PM CDT (10/11)
Length of Visible Light 11h 42m
Length of Day
9h 45m
Waxing Crescent, 47% of the Moon is Illuminated
Oct 11
Waxing Crescent
Oct 11
First Quarter
Oct 18
Full
Oct 26
Last Quarter
Nov 3
New

Hourly Weather History & Observations

Time (CDT) Temp. Windchill Dew Point Humidity Pressure Visibility Wind Dir Wind Speed Gust Speed Precip Events Conditions
12:00 AM 30.2 °F 15.9 °F - N/A% 29.70 in 1.0 mi SE 26.5 mph 33.4 mph N/A Snow Light Snow
12:01 AM 30.2 °F 15.9 °F - N/A% 29.70 in 1.0 mi SE 26.5 mph 33.4 mph N/A Snow Light Snow
12:26 AM 32.0 °F 17.9 °F - N/A% 29.69 in 1.0 mi SE 28.8 mph 34.5 mph N/A Snow Light Snow
12:33 AM 32.0 °F 18.4 °F - N/A% 29.69 in 1.0 mi SE 26.5 mph - N/A Snow Light Snow
12:36 AM 32.0 °F 18.1 °F - N/A% 29.69 in 1.0 mi SE 27.6 mph - N/A Snow Light Snow
12:50 AM 32.0 °F 18.6 °F - N/A% 29.69 in 1.1 mi SSE 25.3 mph 32.2 mph N/A Snow Light Snow
12:57 AM 32.0 °F 18.1 °F - N/A% 29.68 in 1.1 mi SE 27.6 mph - N/A Snow Light Snow
12:58 AM 32.0 °F 17.9 °F - N/A% 29.68 in 1.1 mi SE 28.8 mph - N/A Snow Light Snow
1:00 AM 31 °F - - %  in 1 mi SE 27.6 mph - -  
1:00 AM 32.0 °F 18.1 °F - N/A% 29.68 in 1.1 mi SE 27.6 mph - N/A Snow Light Snow
1:09 AM 32.0 °F 18.1 °F - N/A% 29.67 in 1.0 mi SE 27.6 mph 33.4 mph N/A Snow Light Snow
1:47 AM 32.0 °F 18.4 °F - N/A% 29.66 in 1.0 mi SE 26.5 mph - N/A Snow Light Snow
1:53 AM 32.0 °F 18.4 °F - N/A% 29.66 in 1.0 mi SE 26.5 mph - N/A Snow Light Snow
1:57 AM 32.0 °F 18.6 °F - N/A% 29.66 in 0.8 mi SE 25.3 mph 31.1 mph N/A Snow Light Snow
2:00 AM 32.0 °F 18.1 °F - N/A% 29.66 in 0.8 mi SE 27.6 mph - N/A Snow Light Snow
2:09 AM 32.0 °F 18.4 °F - N/A% 29.65 in 1.0 mi SE 26.5 mph - N/A Snow Light Snow
2:11 AM 32.0 °F 18.1 °F - N/A% 29.65 in 1.0 mi SE 27.6 mph - N/A Snow Light Snow
2:19 AM 32.0 °F 18.4 °F - N/A% 29.64 in 1.0 mi SE 26.5 mph - N/A Snow Light Snow
2:48 AM 32.0 °F 18.6 °F - N/A% 29.64 in 1.1 mi SE 25.3 mph - N/A Snow Light Snow
2:53 AM 32.0 °F 18.9 °F - N/A% 29.64 in 1.0 mi SE 24.2 mph - N/A Snow Light Snow
2:59 AM 32.0 °F 18.9 °F - N/A% 29.63 in 0.6 mi SE 24.2 mph - N/A Snow Light Snow
3:00 AM 32.0 °F 18.6 °F - N/A% 29.63 in 0.6 mi SE 25.3 mph - N/A Snow Light Snow
3:12 AM 32.0 °F 18.9 °F - N/A% 29.63 in 0.6 mi SE 24.2 mph - N/A Snow Light Snow
3:20 AM 32.0 °F 18.6 °F - N/A% 29.63 in 1.0 mi SE 25.3 mph - N/A Snow Light Snow
4:00 AM 32 °F - - %  in 1 mi SE 23.0 mph - - Snow Light Snow
4:00 AM 32.0 °F 19.5 °F - N/A% 29.62 in 1.1 mi SE 21.9 mph - N/A Snow Light Snow
4:15 AM 32.0 °F 18.9 °F - N/A% 29.61 in 1.4 mi SE 24.2 mph - N/A Snow Light Snow
4:48 AM 32.0 °F 19.8 °F - N/A% 29.60 in 1.4 mi SE 20.7 mph - N/A Snow Light Snow
5:00 AM 32.0 °F 19.8 °F - N/A% 29.60 in 1.6 mi SSE 20.7 mph - N/A Snow Light Snow
5:14 AM 32.0 °F 19.5 °F - N/A% 29.59 in 3.0 mi SSE 21.9 mph - N/A Snow Light Snow
5:22 AM 32.0 °F 19.5 °F - N/A% 29.59 in 6.0 mi SE 21.9 mph - N/A Snow Light Snow
5:50 AM 33.8 °F 22.2 °F - N/A% 29.58 in 9.0 mi SSE 20.7 mph - N/A Rain Light Rain
6:00 AM 33.8 °F 22.2 °F - N/A% 29.58 in 9.0 mi SSE 20.7 mph - N/A   Overcast
6:46 AM 33.8 °F 22.5 °F - N/A% 29.58 in 9.0 mi SSE 19.6 mph - N/A Snow Light Snow
6:47 AM 33.8 °F 22.5 °F - N/A% 29.58 in 9.0 mi SSE 19.6 mph - N/A Rain Light Rain
6:48 AM 33.8 °F 22.5 °F - N/A% 29.58 in 9.0 mi SSE 19.6 mph - N/A Snow Light Snow
6:49 AM 33.8 °F 22.5 °F - N/A% 29.58 in 9.0 mi SSE 19.6 mph - N/A   Overcast
6:53 AM 33.8 °F 22.8 °F - N/A% 29.58 in 9.0 mi SSE 18.4 mph - N/A   Overcast
7:00 AM 34 °F - - %  in 9 mi SSE 18.4 mph - -   Overcast
7:00 AM 33.8 °F 22.8 °F - N/A% 29.58 in 9.0 mi SSE 18.4 mph - N/A   Overcast
7:12 AM 33.8 °F 22.8 °F - N/A% 29.58 in 9.0 mi SSE 18.4 mph - N/A   Overcast
7:28 AM 33.8 °F 23.2 °F - N/A% 29.58 in 9.0 mi SSE 17.3 mph - N/A   Overcast
7:53 AM 33.8 °F 23.5 °F - N/A% 29.58 in 9.0 mi SSE 16.1 mph - N/A Rain Light Rain
7:54 AM 33.8 °F 23.5 °F - N/A% 29.58 in 9.0 mi SSE 16.1 mph - N/A   Overcast
7:55 AM 33.8 °F 23.5 °F - N/A% 29.58 in 9.0 mi SSE 16.1 mph - N/A   Overcast
7:56 AM 33.8 °F 23.5 °F - N/A% 29.58 in 9.0 mi SSE 16.1 mph - N/A Rain Light Rain
8:00 AM 33.8 °F 23.5 °F - N/A% 29.59 in 9.0 mi SSE 16.1 mph - N/A Rain Light Rain
8:07 AM 33.8 °F 23.5 °F - N/A% 29.59 in 9.0 mi SSE 16.1 mph - N/A   Overcast
9:00 AM 33.8 °F 23.5 °F - N/A% 29.58 in 9.0 mi South 16.1 mph - N/A   Overcast
9:49 AM 33.8 °F 23.5 °F - N/A% 29.59 in 9.0 mi South 16.1 mph - N/A   Overcast
10:00 AM 34 °F - - % 29.61 in 9 mi South 16.1 mph - -   Overcast
10:00 AM 33.8 °F 23.5 °F - N/A% 29.61 in 9.0 mi South 16.1 mph - N/A   Overcast
10:06 AM 33.8 °F 23.2 °F - N/A% 29.59 in 9.0 mi South 17.3 mph - N/A   Overcast
10:14 AM 33.8 °F 23.2 °F - N/A% 29.59 in 9.0 mi South 17.3 mph - N/A   Overcast
10:39 AM 33.8 °F 23.9 °F - N/A% 29.59 in 9.0 mi South 15.0 mph - N/A   Overcast
11:00 AM 33.8 °F 24.3 °F - N/A% 29.61 in 9.0 mi SSE 13.8 mph - N/A   Overcast
11:10 AM 33.8 °F 24.8 °F - N/A% 29.59 in 9.0 mi SSE 12.7 mph - N/A   Overcast
11:33 AM 33.8 °F 25.3 °F - N/A% 29.59 in 9.0 mi SSE 11.5 mph - N/A   Overcast
12:00 PM 33.8 °F 25.3 °F - N/A% 29.61 in 9.0 mi SE 11.5 mph - N/A   Overcast
12:12 PM 33.8 °F 25.8 °F - N/A% 29.59 in 9.0 mi SE 10.4 mph - N/A   Overcast
12:53 PM 35.6 °F 26.2 °F - N/A% 29.59 in 9.0 mi South 15.0 mph - N/A   Overcast
1:00 PM 35 °F - - % 29.61 in 9 mi South 13.8 mph - -   Overcast
1:00 PM 33.8 °F 24.3 °F - N/A% 29.61 in 9.0 mi South 13.8 mph - N/A   Overcast
1:17 PM 33.8 °F 25.3 °F - N/A% 29.59 in 9.0 mi SSE 11.5 mph - N/A   Overcast
1:30 PM 33.8 °F 25.8 °F - N/A% 29.59 in 9.0 mi South 10.4 mph - N/A   Overcast
1:40 PM 33.8 °F 24.8 °F - N/A% 29.59 in 9.0 mi South 12.7 mph - N/A   Overcast
1:43 PM 33.8 °F 25.8 °F - N/A% 29.60 in 9.0 mi South 10.4 mph - N/A   Overcast
2:00 PM 33.8 °F 25.3 °F - N/A% 29.61 in 7.0 mi SSW 11.5 mph - N/A   Overcast
2:10 PM 35.6 °F 26.2 °F - N/A% 29.60 in 6.0 mi SSW 15.0 mph - N/A   Overcast
2:14 PM 35.6 °F 25.9 °F - N/A% 29.60 in 6.0 mi SSW 16.1 mph - N/A   Overcast
2:16 PM 35.6 °F 26.2 °F - N/A% 29.60 in 6.0 mi SSW 15.0 mph - N/A   Overcast
2:21 PM 35.6 °F 26.2 °F - N/A% 29.60 in 6.0 mi SSW 15.0 mph - N/A   Overcast
2:43 PM 35.6 °F 26.2 °F - N/A% 29.60 in 9.0 mi SSW 15.0 mph - N/A   Overcast
2:52 PM 35.6 °F 25.9 °F - N/A% 29.60 in 9.0 mi SSW 16.1 mph - N/A   Overcast
2:57 PM 35.6 °F 25.9 °F - N/A% 29.60 in 9.0 mi SSW 16.1 mph - N/A   Overcast
3:00 PM 33.8 °F 23.9 °F - N/A% 29.62 in 9.0 mi SSW 15.0 mph - N/A   Overcast
3:03 PM 33.8 °F 23.5 °F - N/A% 29.60 in 9.0 mi SSW 16.1 mph - N/A   Overcast
3:16 PM 33.8 °F 23.9 °F - N/A% 29.60 in 9.0 mi SSW 15.0 mph - N/A   Overcast
3:28 PM 33.8 °F 23.2 °F - N/A% 29.60 in 9.0 mi SSW 17.3 mph - N/A   Overcast
4:00 PM 34 °F - - % 29.62 in 9 mi SSW 16.1 mph - -   Overcast
4:00 PM 33.8 °F 23.9 °F - N/A% 29.62 in 9.0 mi SSW 15.0 mph - N/A   Overcast
5:00 PM 33.8 °F 24.8 °F - N/A% 29.63 in 9.0 mi South 12.7 mph - N/A   Overcast
5:50 PM 33.8 °F 24.3 °F - N/A% 29.62 in 9.0 mi South 13.8 mph - N/A   Overcast
6:00 PM 33.8 °F 24.3 °F - N/A% 29.64 in 9.0 mi South 13.8 mph - N/A   Overcast
6:07 PM 33.8 °F 24.3 °F - N/A% 29.62 in 9.0 mi South 13.8 mph - N/A   Overcast
6:35 PM 33.8 °F 24.8 °F - N/A% 29.62 in 9.0 mi South 12.7 mph - N/A   Overcast
6:58 PM 33.8 °F 25.3 °F - N/A% 29.62 in 9.0 mi South 11.5 mph - N/A   Overcast
7:00 PM 34 °F - - % 29.64 in 9 mi South 11.5 mph - -   Overcast
7:00 PM 33.8 °F 25.3 °F - N/A% 29.64 in 9.0 mi South 11.5 mph - N/A   Overcast
7:14 PM 33.8 °F 24.8 °F - N/A% 29.62 in 9.0 mi South 12.7 mph - N/A   Overcast
8:00 PM 33.8 °F 23.5 °F - N/A% 29.64 in 9.0 mi SSW 16.1 mph - N/A   Overcast
8:01 PM 33.8 °F 23.5 °F - N/A% 29.62 in 9.0 mi SSW 16.1 mph - N/A   Overcast
8:18 PM 32.0 °F 20.1 °F - N/A% 29.63 in 9.0 mi SSW 19.6 mph 25.3 mph N/A   Overcast
8:20 PM 32.0 °F 20.5 °F - N/A% 29.63 in 9.0 mi SSW 18.4 mph 25.3 mph N/A   Overcast
8:27 PM 32.0 °F 20.5 °F - N/A% 29.63 in 9.0 mi SSW 18.4 mph - N/A   Overcast
8:49 PM 32.0 °F 21.2 °F - N/A% 29.63 in 9.0 mi SSW 16.1 mph - N/A   Overcast
9:00 PM 32.0 °F 20.1 °F - N/A% 29.65 in 9.0 mi SSW 19.6 mph - N/A   Overcast
9:08 PM 32.0 °F 19.5 °F - N/A% 29.63 in 9.0 mi SSW 21.9 mph - N/A   Overcast
9:12 PM 32.0 °F 21.2 °F - N/A% 29.63 in 9.0 mi SSW 16.1 mph 21.9 mph N/A   Overcast
9:21 PM 32.0 °F 21.2 °F - N/A% 29.62 in 9.0 mi SSW 16.1 mph 21.9 mph N/A   Overcast
9:28 PM 32.0 °F 22.1 °F - N/A% 29.62 in 9.0 mi SSW 13.8 mph - N/A   Overcast
9:41 PM 32.0 °F 20.8 °F - N/A% 29.62 in 9.0 mi SSW 17.3 mph - N/A   Mostly Cloudy
9:59 PM 32.0 °F 20.8 °F - N/A% 29.62 in 9.0 mi SSW 17.3 mph - N/A   Overcast
10:00 PM 33 °F - - % 29.63 in 9 mi SSW 17.3 mph - -   Overcast
10:00 PM 32.0 °F 20.8 °F - N/A% 29.63 in 9.0 mi SSW 17.3 mph - N/A   Overcast
10:21 PM 32.0 °F 20.5 °F - N/A% 29.61 in 4.0 mi SSW 18.4 mph - N/A   Overcast
10:23 PM 32.0 °F 20.5 °F - N/A% 29.61 in 3.5 mi SSW 18.4 mph - N/A   Overcast
10:39 PM 32.0 °F 21.2 °F - N/A% 29.61 in 5.0 mi SSW 16.1 mph - N/A   Overcast
10:46 PM 32.0 °F 20.8 °F - N/A% 29.61 in 9.0 mi SSW 17.3 mph - N/A   Overcast
10:47 PM 32.0 °F 21.2 °F - N/A% 29.61 in 9.0 mi SSW 16.1 mph - N/A   Overcast
11:00 PM 32.0 °F 20.8 °F - N/A% 29.62 in 9.0 mi SSW 17.3 mph - N/A   Overcast
11:11 PM 32.0 °F 21.2 °F - N/A% 29.61 in 9.0 mi SSW 16.1 mph - N/A   Overcast
11:18 PM 32.0 °F 22.1 °F - N/A% 29.61 in 9.0 mi SSW 13.8 mph - N/A   Overcast
11:33 PM 32.0 °F 22.5 °F - N/A% 29.61 in 9.0 mi SSW 12.7 mph - N/A   Overcast
11:51 PM 32.0 °F 22.1 °F - N/A% 29.60 in 9.0 mi South 13.8 mph - N/A   Overcast
11:52 PM 32.0 °F 21.6 °F - N/A% 29.60 in 9.0 mi South 15.0 mph - N/A   Overcast
11:58 PM 32.0 °F 21.6 °F - N/A% 29.60 in 9.0 mi South 15.0 mph - N/A   Mostly Cloudy